Time,TemperatureF,DewpointF,PressureIn,WindDirection,WindDirectionDegrees,WindSpeedMPH,WindSpeedGustMPH,Humidity,HourlyPrecipIn,Conditions,Clouds,dailyrainin,SoftwareType,DateUTC
2013-05-01 00:03:00,68.0,67.0,30.01,East,90,0.0,0.0,96,0.00,,,0.00,,2013-05-01 04:03:00,
2013-05-01 00:12:00,68.0,67.0,30.01,East,90,0.0,0.0,96,0.00,,,0.00,,2013-05-01 04:12:00,
2013-05-01 00:22:00,68.0,67.0,30.01,East,90,0.0,0.0,96,0.00,,,0.00,,2013-05-01 04:22:00,
2013-05-01 00:32:00,68.0,67.0,30.01,East,90,0.0,0.0,97,0.00,,,0.00,,2013-05-01 04:32:00,
2013-05-01 00:43:00,68.0,67.0,30.01,East,90,0.0,0.0,97,0.00,,,0.00,,2013-05-01 04:43:00,
2013-05-01 00:52:00,68.0,67.0,30.01,East,90,0.0,0.0,97,0.00,,,0.00,,2013-05-01 04:52:00,
2013-05-01 01:02:00,68.0,67.0,30.01,East,90,0.0,0.0,97,0.00,,,0.00,,2013-05-01 05:02:00,
2013-05-01 01:11:00,68.0,67.0,30.01,East,90,0.0,0.0,97,0.00,,,0.00,,2013-05-01 05:11:00,
2013-05-01 01:21:00,67.0,66.0,30.01,East,90,0.0,0.0,97,0.00,,,0.00,,2013-05-01 05:21:00,
2013-05-01 01:32:00,67.0,66.0,30.00,East,90,0.0,0.0,98,0.00,,,0.00,,2013-05-01 05:32:00,
2013-05-01 01:42:00,67.0,66.0,29.99,East,90,0.0,0.0,98,0.00,,,0.00,,2013-05-01 05:42:00,
2013-05-01 01:52:00,67.0,66.0,29.99,East,90,0.0,0.0,98,0.00,,,0.00,,2013-05-01 05:52:00,
2013-05-01 02:02:00,67.0,66.0,29.99,East,90,0.0,0.0,98,0.00,,,0.00,,2013-05-01 06:02:00,
2013-05-01 02:12:00,67.0,66.0,29.99,East,90,0.0,0.0,98,0.00,,,0.00,,2013-05-01 06:12:00,
2013-05-01 02:22:00,67.0,66.0,29.98,East,90,0.0,0.0,98,0.00,,,0.00,,2013-05-01 06:22:00,
2013-05-01 02:32:00,67.0,66.0,29.98,East,90,0.0,0.0,98,0.00,,,0.00,,2013-05-01 06:32:00,
2013-05-01 02:42:00,67.0,66.0,29.98,East,90,0.0,0.0,98,0.00,,,0.00,,2013-05-01 06:42:00,
2013-05-01 02:52:00,67.0,66.0,29.97,East,90,0.0,0.0,98,0.00,,,0.00,,2013-05-01 06:52:00,
2013-05-01 03:01:00,66.0,65.0,29.97,East,90,0.0,0.0,98,0.00,,,0.00,,2013-05-01 07:01:00,
2013-05-01 03:11:00,66.0,65.0,29.97,East,90,0.0,0.0,98,0.00,,,0.00,,2013-05-01 07:11:00,
2013-05-01 03:21:00,66.0,65.0,29.96,East,90,0.0,0.0,98,0.00,,,0.00,,2013-05-01 07:21:00,
2013-05-01 03:32:00,66.0,65.0,29.96,East,90,0.0,0.0,98,0.00,,,0.00,,2013-05-01 07:32:00,
2013-05-01 03:42:00,66.0,65.0,29.96,East,90,0.0,0.0,98,0.00,,,0.00,,2013-05-01 07:42:00,
2013-05-01 03:52:00,66.0,65.0,29.96,East,90,0.0,0.0,98,0.00,,,0.00,,2013-05-01 07:52:00,
2013-05-01 04:02:00,66.0,66.0,29.95,East,90,0.0,0.0,99,0.00,,,0.00,,2013-05-01 08:02:00,
2013-05-01 04:12:00,66.0,66.0,29.95,East,90,0.0,0.0,99,0.00,,,0.00,,2013-05-01 08:12:00,
2013-05-01 04:22:00,66.0,66.0,29.95,East,90,0.0,0.0,99,0.00,,,0.00,,2013-05-01 08:22:00,
2013-05-01 04:32:00,66.0,66.0,29.96,East,90,0.0,0.0,99,0.00,,,0.00,,2013-05-01 08:32:00,
2013-05-01 04:42:00,66.0,66.0,29.96,East,90,0.0,0.0,99,0.00,,,0.00,,2013-05-01 08:42:00,
2013-05-01 04:53:00,65.0,64.0,29.95,East,90,0.0,0.0,98,0.00,,,0.00,,2013-05-01 08:53:00,
2013-05-01 05:01:00,65.0,65.0,29.95,East,90,0.0,0.0,99,0.00,,,0.00,,2013-05-01 09:01:00,
2013-05-01 05:12:00,65.0,65.0,29.95,East,90,0.0,0.0,99,0.00,,,0.00,,2013-05-01 09:12:00,
2013-05-01 05:21:00,66.0,66.0,29.95,East,90,0.0,0.0,99,0.00,,,0.00,,2013-05-01 09:21:00,
2013-05-01 05:33:00,66.0,66.0,29.96,East,90,0.0,0.0,99,0.00,,,0.00,,2013-05-01 09:33:00,
2013-05-01 05:42:00,66.0,66.0,29.96,East,90,0.0,0.0,99,0.00,,,0.00,,2013-05-01 09:42:00,
2013-05-01 05:53:00,66.0,66.0,29.96,East,90,0.0,0.0,99,0.00,,,0.00,,2013-05-01 09:53:00,
2013-05-01 06:03:00,66.0,66.0,29.96,East,90,0.0,0.0,99,0.00,,,0.00,,2013-05-01 10:03:00,
2013-05-01 06:12:00,66.0,66.0,29.96,East,90,0.0,0.0,99,0.00,,,0.00,,2013-05-01 10:12:00,
2013-05-01 06:22:00,66.0,66.0,29.96,East,90,0.0,0.0,99,0.00,,,0.00,,2013-05-01 10:22:00,
2013-05-01 06:33:00,66.0,66.0,29.96,East,90,0.0,0.0,99,0.00,,,0.00,,2013-05-01 10:33:00,
2013-05-01 06:42:00,66.0,66.0,29.96,East,90,0.0,0.0,99,0.00,,,0.00,,2013-05-01 10:42:00,
2013-05-01 06:53:00,66.0,66.0,29.97,East,90,0.0,0.0,99,0.00,,,0.00,,2013-05-01 10:53:00,
2013-05-01 07:02:00,67.0,67.0,29.97,East,90,0.0,0.0,99,0.00,,,0.00,,2013-05-01 11:02:00,
2013-05-01 07:11:00,67.0,67.0,29.97,East,90,0.0,0.0,99,0.00,,,0.00,,2013-05-01 11:11:00,
2013-05-01 07:22:00,67.0,67.0,29.98,East,90,0.0,0.0,99,0.00,,,0.00,,2013-05-01 11:22:00,
2013-05-01 07:32:00,67.0,67.0,29.98,East,90,0.0,0.0,99,0.00,,,0.00,,2013-05-01 11:32:00,
2013-05-01 07:42:00,68.0,68.0,29.98,East,90,0.0,0.0,99,0.00,,,0.00,,2013-05-01 11:42:00,
2013-05-01 07:52:00,68.0,68.0,29.98,East,90,0.0,0.0,99,0.00,,,0.00,,2013-05-01 11:52:00,
2013-05-01 08:01:00,68.0,68.0,29.98,East,90,0.0,0.0,99,0.00,,,0.00,,2013-05-01 12:01:00,
2013-05-01 08:11:00,69.0,69.0,30.00,East,90,0.0,0.0,99,0.00,,,0.00,,2013-05-01 12:11:00,
2013-05-01 08:21:00,69.0,69.0,30.00,East,90,0.0,0.0,99,0.00,,,0.00,,2013-05-01 12:21:00,
2013-05-01 08:32:00,69.0,69.0,30.01,East,90,0.0,0.0,99,0.00,,,0.00,,2013-05-01 12:32:00,
2013-05-01 08:41:00,69.0,69.0,30.01,East,90,0.0,0.0,99,0.00,,,0.00,,2013-05-01 12:41:00,
2013-05-01 08:52:00,70.0,70.0,30.00,East,90,0.0,0.0,99,0.00,,,0.00,,2013-05-01 12:52:00,
2013-05-01 09:01:00,71.0,71.0,30.01,East,90,0.0,0.0,99,0.00,,,0.00,,2013-05-01 13:01:00,
2013-05-01 09:11:00,71.0,71.0,30.01,East,90,0.0,0.0,99,0.00,,,0.00,,2013-05-01 13:11:00,
2013-05-01 09:22:00,72.0,72.0,30.01,East,90,0.0,0.0,99,0.00,,,0.00,,2013-05-01 13:22:00,
2013-05-01 09:32:00,72.0,72.0,30.00,East,90,0.0,0.0,99,0.00,,,0.00,,2013-05-01 13:32:00,
2013-05-01 09:42:00,72.0,72.0,30.00,East,90,0.0,0.0,99,0.00,,,0.00,,2013-05-01 13:42:00,
2013-05-01 09:52:00,74.0,73.0,30.00,ENE,61,0.0,1.0,97,0.00,,,0.00,,2013-05-01 13:52:00,
2013-05-01 10:02:00,75.0,71.0,29.99,ENE,70,0.0,2.0,87,0.00,,,0.00,,2013-05-01 14:02:00,
2013-05-01 10:11:00,75.0,71.0,29.99,ENE,70,0.0,2.0,87,0.00,,,0.00,,2013-05-01 14:11:00,
2013-05-01 10:22:00,77.0,71.0,29.99,ENE,69,0.0,2.0,82,0.00,,,0.00,,2013-05-01 14:22:00,
2013-05-01 10:32:00,80.0,72.0,30.01,ENE,76,0.0,3.0,76,0.00,,,0.00,,2013-05-01 14:32:00,
2013-05-01 10:42:00,80.0,72.0,30.01,ENE,76,0.0,3.0,76,0.00,,,0.00,,2013-05-01 14:42:00,
2013-05-01 10:52:00,80.0,71.0,30.01,NE,46,0.0,1.0,75,0.00,,,0.00,,2013-05-01 14:52:00,
2013-05-01 11:01:00,80.0,71.0,30.01,NE,35,0.0,4.0,74,0.00,,,0.00,,2013-05-01 15:01:00,
2013-05-01 11:11:00,80.0,71.0,30.01,NE,35,0.0,4.0,74,0.00,,,0.00,,2013-05-01 15:11:00,
2013-05-01 11:21:00,79.0,71.0,30.03,SE,131,0.0,1.0,76,0.00,,,0.00,,2013-05-01 15:21:00,
2013-05-01 11:33:00,80.0,71.0,30.03,East,87,0.0,1.0,74,0.00,,,0.00,,2013-05-01 15:33:00,
2013-05-01 11:43:00,80.0,71.0,30.03,East,87,0.0,1.0,74,0.00,,,0.00,,2013-05-01 15:43:00,
2013-05-01 11:53:00,79.0,70.0,30.03,East,90,0.0,2.0,74,0.00,,,0.00,,2013-05-01 15:53:00,
2013-05-01 12:03:00,80.0,71.0,30.02,ENE,75,0.0,2.0,73,0.00,,,0.00,,2013-05-01 16:03:00,
2013-05-01 12:12:00,80.0,71.0,30.02,ENE,75,0.0,2.0,73,0.00,,,0.00,,2013-05-01 16:12:00,
2013-05-01 12:22:00,79.0,70.0,30.02,ENE,74,0.0,3.0,74,0.00,,,0.00,,2013-05-01 16:22:00,
2013-05-01 12:32:00,78.0,70.0,30.02,ENE,59,0.0,1.0,76,0.00,,,0.00,,2013-05-01 16:32:00,
2013-05-01 12:42:00,78.0,70.0,30.02,ENE,59,0.0,1.0,76,0.00,,,0.00,,2013-05-01 16:42:00,
2013-05-01 12:53:00,78.0,71.0,30.02,East,95,0.0,1.0,78,0.00,,,0.00,,2013-05-01 16:53:00,
2013-05-01 13:02:00,78.0,71.0,30.01,ESE,108,0.0,1.0,78,0.00,,,0.00,,2013-05-01 17:02:00,
2013-05-01 13:12:00,78.0,71.0,30.01,ESE,108,0.0,1.0,78,0.00,,,0.00,,2013-05-01 17:12:00,
2013-05-01 13:22:00,78.0,71.0,30.01,East,94,0.0,1.0,79,0.00,,,0.00,,2013-05-01 17:22:00,
2013-05-01 13:32:00,77.0,71.0,30.01,East,79,0.0,2.0,81,0.00,,,0.00,,2013-05-01 17:32:00,
2013-05-01 13:42:00,76.0,70.0,30.01,NE,56,0.0,2.0,83,0.00,,,0.00,,2013-05-01 17:42:00,
2013-05-01 13:52:00,76.0,70.0,30.01,NE,56,0.0,2.0,83,0.00,,,0.00,,2013-05-01 17:52:00,
2013-05-01 14:01:00,73.0,70.0,30.01,NNE,33,0.0,1.0,89,0.02,,,0.02,,2013-05-01 18:01:00,
2013-05-01 14:11:00,73.0,70.0,30.01,NNE,33,0.0,1.0,89,0.02,,,0.02,,2013-05-01 18:11:00,
2013-05-01 14:22:00,71.0,69.0,30.02,East,90,0.0,0.0,92,0.03,,,0.03,,2013-05-01 18:22:00,
2013-05-01 14:32:00,71.0,69.0,30.01,East,90,0.0,0.0,95,0.06,,,0.06,,2013-05-01 18:32:00,
2013-05-01 14:42:00,71.0,69.0,30.01,East,90,0.0,0.0,95,0.06,,,0.06,,2013-05-01 18:42:00,
2013-05-01 14:52:00,71.0,70.0,30.01,East,90,0.0,0.0,96,0.08,,,0.08,,2013-05-01 18:52:00,
2013-05-01 15:02:00,72.0,71.0,30.00,East,90,0.0,0.0,96,0.06,,,0.08,,2013-05-01 19:02:00,
2013-05-01 15:11:00,72.0,71.0,30.00,East,90,0.0,0.0,96,0.06,,,0.08,,2013-05-01 19:11:00,
2013-05-01 15:22:00,72.0,71.0,29.99,East,90,0.0,0.0,96,0.05,,,0.09,,2013-05-01 19:22:00,
2013-05-01 15:32:00,73.0,72.0,29.98,East,90,0.0,0.0,96,0.04,,,0.10,,2013-05-01 19:32:00,
2013-05-01 15:43:00,73.0,72.0,29.98,East,90,0.0,0.0,96,0.04,,,0.10,,2013-05-01 19:43:00,
2013-05-01 15:52:00,74.0,72.0,29.98,NNE,25,0.0,1.0,95,0.02,,,0.10,,2013-05-01 19:52:00,
2013-05-01 16:02:00,75.0,73.0,29.98,East,90,0.0,0.0,94,0.02,,,0.10,,2013-05-01 20:02:00,
2013-05-01 16:11:00,75.0,73.0,29.98,East,90,0.0,0.0,94,0.02,,,0.10,,2013-05-01 20:11:00,
2013-05-01 16:21:00,75.0,73.0,29.97,East,90,0.0,0.0,92,0.01,,,0.10,,2013-05-01 20:21:00,
2013-05-01 16:32:00,74.0,72.0,29.97,East,90,0.0,0.0,92,0.00,,,0.10,,2013-05-01 20:32:00,
2013-05-01 16:42:00,74.0,72.0,29.97,East,90,0.0,0.0,92,0.00,,,0.10,,2013-05-01 20:42:00,
2013-05-01 16:52:00,74.0,72.0,29.97,SE,142,0.0,1.0,92,0.00,,,0.10,,2013-05-01 20:52:00,
2013-05-01 17:01:00,74.0,72.0,29.98,East,90,0.0,0.0,92,0.00,,,0.10,,2013-05-01 21:01:00,
2013-05-01 17:11:00,74.0,72.0,29.98,East,90,0.0,0.0,92,0.00,,,0.10,,2013-05-01 21:11:00,
2013-05-01 17:22:00,74.0,72.0,29.99,East,90,0.0,0.0,92,0.00,,,0.10,,2013-05-01 21:22:00,
2013-05-01 17:32:00,73.0,71.0,29.99,SSE,162,0.0,2.0,93,0.00,,,0.10,,2013-05-01 21:32:00,
2013-05-01 17:43:00,73.0,71.0,29.99,East,90,0.0,0.0,94,0.07,,,0.17,,2013-05-01 21:43:00,
2013-05-01 17:53:00,73.0,71.0,29.99,East,90,0.0,0.0,94,0.07,,,0.17,,2013-05-01 21:53:00,
2013-05-01 18:03:00,72.0,70.0,29.99,East,90,0.0,0.0,95,0.09,,,0.19,,2013-05-01 22:03:00,
2013-05-01 18:12:00,72.0,70.0,29.99,East,90,0.0,0.0,95,0.09,,,0.19,,2013-05-01 22:12:00,
2013-05-01 18:23:00,72.0,71.0,30.00,WSW,257,2.0,9.0,96,0.11,,,0.21,,2013-05-01 22:23:00,
2013-05-01 18:33:00,69.0,67.0,30.00,West,273,3.0,8.0,93,0.14,,,0.24,,2013-05-01 22:33:00,
2013-05-01 18:42:00,69.0,67.0,30.00,West,273,3.0,8.0,93,0.14,,,0.24,,2013-05-01 22:42:00,
2013-05-01 18:53:00,67.0,66.0,30.01,West,279,0.0,4.0,95,0.19,,,0.32,,2013-05-01 22:53:00,
2013-05-01 19:02:00,67.0,66.0,29.99,West,267,0.0,2.0,97,0.18,,,0.37,,2013-05-01 23:02:00,
2013-05-01 19:12:00,67.0,66.0,29.99,West,267,0.0,2.0,97,0.18,,,0.37,,2013-05-01 23:12:00,
2013-05-01 19:21:00,67.0,66.0,29.99,East,90,0.0,0.0,97,0.19,,,0.39,,2013-05-01 23:21:00,
2013-05-01 19:32:00,67.0,66.0,29.98,East,90,0.0,0.0,98,0.15,,,0.42,,2013-05-01 23:32:00,
2013-05-01 19:42:00,67.0,66.0,29.98,East,90,0.0,0.0,98,0.15,,,0.42,,2013-05-01 23:42:00,
2013-05-01 19:52:00,67.0,66.0,29.98,East,90,0.0,0.0,98,0.09,,,0.43,,2013-05-01 23:52:00,
2013-05-01 20:01:00,67.0,66.0,29.98,East,90,0.0,0.0,98,0.09,,,0.43,,2013-05-02 00:01:00,
2013-05-01 20:11:00,67.0,66.0,29.98,East,90,0.0,0.0,98,0.09,,,0.43,,2013-05-02 00:11:00,
2013-05-01 20:21:00,66.0,65.0,29.99,WNW,290,0.0,1.0,98,0.04,,,0.44,,2013-05-02 00:21:00,
2013-05-01 20:32:00,66.0,65.0,29.99,East,90,0.0,0.0,98,0.02,,,0.44,,2013-05-02 00:32:00,
2013-05-01 20:42:00,66.0,65.0,29.99,East,90,0.0,0.0,98,0.02,,,0.44,,2013-05-02 00:42:00,
2013-05-01 20:52:00,67.0,66.0,30.00,East,90,0.0,0.0,98,0.01,,,0.44,,2013-05-02 00:52:00,
2013-05-01 21:01:00,67.0,67.0,30.00,East,90,0.0,0.0,99,0.01,,,0.44,,2013-05-02 01:01:00,
2013-05-01 21:11:00,67.0,67.0,30.00,East,90,0.0,0.0,99,0.01,,,0.44,,2013-05-02 01:11:00,
2013-05-01 21:22:00,67.0,67.0,30.00,East,90,0.0,0.0,99,0.00,,,0.44,,2013-05-02 01:22:00,
2013-05-01 21:32:00,67.0,67.0,29.99,East,90,0.0,0.0,99,0.01,,,0.45,,2013-05-02 01:32:00,
2013-05-01 21:42:00,67.0,67.0,29.99,East,90,0.0,0.0,99,0.01,,,0.45,,2013-05-02 01:42:00,
2013-05-01 21:52:00,67.0,67.0,30.00,East,90,0.0,0.0,99,0.01,,,0.45,,2013-05-02 01:52:00,
2013-05-01 22:02:00,67.0,67.0,29.99,East,90,0.0,0.0,99,0.01,,,0.45,,2013-05-02 02:02:00,
2013-05-01 22:12:00,67.0,67.0,29.99,East,90,0.0,0.0,99,0.01,,,0.45,,2013-05-02 02:12:00,
2013-05-01 22:21:00,68.0,68.0,29.99,East,90,0.0,0.0,99,0.01,,,0.45,,2013-05-02 02:21:00,
2013-05-01 22:32:00,68.0,68.0,29.98,East,90,0.0,0.0,99,0.00,,,0.45,,2013-05-02 02:32:00,
2013-05-01 22:42:00,68.0,68.0,29.98,East,90,0.0,0.0,99,0.00,,,0.45,,2013-05-02 02:42:00,
2013-05-01 22:51:00,68.0,68.0,29.98,East,90,0.0,0.0,99,0.00,,,0.45,,2013-05-02 02:51:00,
2013-05-01 23:01:00,69.0,69.0,29.99,NE,37,0.0,1.0,99,0.00,,,0.45,,2013-05-02 03:01:00,
2013-05-01 23:11:00,69.0,69.0,29.99,NE,37,0.0,1.0,99,0.00,,,0.45,,2013-05-02 03:11:00,
2013-05-01 23:22:00,68.0,68.0,29.97,NE,40,0.0,1.0,99,0.00,,,0.45,,2013-05-02 03:22:00,
2013-05-01 23:33:00,67.0,66.0,29.97,North,10,0.0,1.0,98,0.00,,,0.46,,2013-05-02 03:33:00,
2013-05-01 23:43:00,67.0,66.0,29.97,North,10,0.0,1.0,98,0.00,,,0.46,,2013-05-02 03:43:00,
2013-05-01 23:53:00,67.0,67.0,29.97,East,90,0.0,0.0,99,0.00,,,0.46,,2013-05-02 03:53:00,